Cas;Teplota [C];Tlak [hPa];Svetlo [lux];Rychlost vetru [km/h];Smer vetru [stupne]
2019-08-25 00:00:01;21.78;1015.44;13;0;0
2019-08-25 00:00:31;21.69;1015.45;14;0;0
2019-08-25 00:01:01;21.8;1015.42;14;0;0
2019-08-25 00:01:31;21.62;1015.4;14;0;0
2019-08-25 00:02:02;21.49;1015.47;13;0;0
2019-08-25 00:02:31;21.55;1015.43;14;0;0
2019-08-25 00:03:01;21.57;1015.41;14;0;0
2019-08-25 00:03:32;21.58;1015.42;13;0;0
2019-08-25 00:04:02;21.75;1015.41;14;0;0
2019-08-25 00:04:31;21.56;1015.43;14;0;0
2019-08-25 00:05:01;21.55;1015.39;13;0;0
2019-08-25 00:05:31;21.61;1015.38;14;0;0
2019-08-25 00:06:01;21.56;1015.33;14;0;0
2019-08-25 00:06:31;21.64;1015.37;13;0;0
2019-08-25 00:07:01;21.46;1015.44;13;0;0
2019-08-25 00:07:31;21.39;1015.43;12;0;0
2019-08-25 00:08:02;21.48;1015.43;13;0;0
2019-08-25 00:08:31;21.39;1015.44;13;0;0
2019-08-25 00:09:01;21.41;1015.44;14;0;0
2019-08-25 00:09:31;21.41;1015.41;13;0;0
2019-08-25 00:10:01;21.42;1015.41;13;0;0
2019-08-25 00:10:31;21.58;1015.41;13;0;0
2019-08-25 00:11:01;21.58;1015.4;12;0;0
2019-08-25 00:11:31;21.49;1015.38;13;0;0
2019-08-25 00:12:01;21.53;1015.43;13;0;0
2019-08-25 00:12:31;21.55;1015.44;13;0;0
2019-08-25 00:13:01;21.48;1015.45;14;0;0
2019-08-25 00:13:32;21.36;1015.46;13;0;0
2019-08-25 00:14:01;21.43;1015.49;13;0;0
2019-08-25 00:14:31;21.42;1015.49;13;0;0
2019-08-25 00:15:01;21.45;1015.47;12;0;0
2019-08-25 00:15:31;21.36;1015.46;13;0;0
2019-08-25 00:16:01;21.42;1015.49;13;0;0
2019-08-25 00:16:31;21.45;1015.46;13;0;0
2019-08-25 00:17:01;21.4;1015.46;13;0;0
2019-08-25 00:17:31;21.59;1015.5;13;0;0
2019-08-25 00:18:01;21.44;1015.49;13;0;0
2019-08-25 00:18:31;21.35;1015.47;13;0;0
2019-08-25 00:19:01;21.37;1015.41;14;0;0
2019-08-25 00:19:31;21.35;1015.42;13;0;0
2019-08-25 00:20:01;21.17;1015.39;13;0;0
2019-08-25 00:20:31;21.34;1015.44;13;0;0
2019-08-25 00:21:01;21.42;1015.46;13;0;0
2019-08-25 00:21:31;21.49;1015.41;12;0;0
2019-08-25 00:22:01;21.37;1015.38;13;0;0
2019-08-25 00:22:31;21.33;1015.42;13;0;0
2019-08-25 00:23:02;21.28;1015.44;13;0;0
2019-08-25 00:23:31;21.08;1015.43;13;0;0
2019-08-25 00:24:01;21.08;1015.43;13;0;0
2019-08-25 00:24:31;21.11;1015.44;14;0;0
2019-08-25 00:25:01;21.27;1015.49;14;0;0
2019-08-25 00:25:32;21.33;1015.5;14;0;0
2019-08-25 00:26:01;21.29;1015.49;13;0;0
2019-08-25 00:26:31;21.04;1015.41;13;0;0
2019-08-25 00:27:01;21.17;1015.47;13;0;0
2019-08-25 00:27:31;21.22;1015.49;14;0;0
2019-08-25 00:28:01;21.25;1015.49;13;0;0
2019-08-25 00:28:31;21.1;1015.47;14;0;0
2019-08-25 00:29:01;21.31;1015.47;12;0;0
2019-08-25 00:29:31;21.17;1015.51;12;0;0
2019-08-25 00:30:01;21.19;1015.52;12;0;0
2019-08-25 00:30:31;21.13;1015.49;13;0;0
2019-08-25 00:31:01;21.04;1015.48;13;0;0
2019-08-25 00:31:31;21.08;1015.48;13;0;0
2019-08-25 00:32:02;21.08;1015.52;13;0;0
2019-08-25 00:32:31;21.1;1015.53;13;0;0
2019-08-25 00:33:01;20.98;1015.53;13;0;0
2019-08-25 00:33:31;20.87;1015.52;13;0;0
2019-08-25 00:34:01;20.8;1015.48;13;0;0
2019-08-25 00:34:31;20.95;1015.5;14;0;0
2019-08-25 00:35:01;20.97;1015.45;14;0;0
2019-08-25 00:35:32;20.96;1015.44;13;0;0
2019-08-25 00:36:01;21;1015.48;13;0;0
2019-08-25 00:36:31;20.96;1015.51;13;0;0
2019-08-25 00:37:01;20.82;1015.5;13;0;0
2019-08-25 00:37:31;20.89;1015.51;13;0;0
2019-08-25 00:38:01;21.02;1015.52;13;0;0
2019-08-25 00:38:31;20.84;1015.5;12;0;0
2019-08-25 00:39:01;20.83;1015.54;13;0;0
2019-08-25 00:39:31;20.83;1015.55;13;0;0
2019-08-25 00:40:01;20.93;1015.49;13;0;0
2019-08-25 00:40:31;20.93;1015.49;13;0;0
2019-08-25 00:41:01;21.09;1015.47;13;0;0
2019-08-25 00:41:31;20.88;1015.5;14;0;0
2019-08-25 00:42:01;20.88;1015.49;13;0;0
2019-08-25 00:42:31;20.85;1015.43;13;0;0
2019-08-25 00:43:01;20.95;1015.41;13;0;0
2019-08-25 00:43:31;20.86;1015.37;13;0;0
2019-08-25 00:44:01;20.87;1015.33;12;0;0
2019-08-25 00:44:31;20.78;1015.39;13;0;0
2019-08-25 00:45:01;20.73;1015.44;13;0;0
2019-08-25 00:45:31;20.84;1015.38;14;0;0
2019-08-25 00:46:01;20.81;1015.31;13;0;0
2019-08-25 00:46:31;20.86;1015.34;13;0;0
2019-08-25 00:47:01;20.77;1015.36;13;0;0
2019-08-25 00:47:31;20.9;1015.35;12;0;0
2019-08-25 00:48:01;20.86;1015.35;12;0;0
2019-08-25 00:48:31;20.72;1015.36;12;0;0
2019-08-25 00:49:01;20.78;1015.38;13;0;0
2019-08-25 00:49:31;20.83;1015.36;13;0;0
2019-08-25 00:50:01;20.96;1015.39;13;0;0
2019-08-25 00:50:31;20.84;1015.41;13;0;0
2019-08-25 00:51:01;20.73;1015.42;13;0;0
2019-08-25 00:51:32;20.69;1015.41;13;0;0
2019-08-25 00:52:01;20.71;1015.4;13;0;0
2019-08-25 00:52:31;20.8;1015.43;12;0;0
2019-08-25 00:53:01;20.75;1015.45;13;0;0
2019-08-25 00:53:31;20.83;1015.46;12;0;0
2019-08-25 00:54:01;20.85;1015.45;12;0;0
2019-08-25 00:54:31;20.88;1015.46;12;0;0
2019-08-25 00:55:01;20.78;1015.37;12;0;0
2019-08-25 00:55:31;20.76;1015.38;13;0;0
2019-08-25 00:56:01;20.84;1015.37;13;0;0
2019-08-25 00:56:31;20.83;1015.33;12;0;0
2019-08-25 00:57:01;20.69;1015.32;13;0;0
2019-08-25 00:57:31;20.68;1015.32;14;0;0
2019-08-25 00:58:01;20.75;1015.31;13;0;0
2019-08-25 00:58:31;20.71;1015.36;12;0;0
2019-08-25 00:59:01;20.59;1015.41;13;0;0
2019-08-25 00:59:31;20.74;1015.43;13;0;0
2019-08-25 01:00:01;20.8;1015.42;13;0;0
2019-08-25 01:00:31;20.82;1015.42;12;0;0
2019-08-25 01:01:01;20.8;1015.4;14;0;0
2019-08-25 01:01:31;20.68;1015.4;12;0;0
2019-08-25 01:02:01;20.81;1015.39;12;0;0
2019-08-25 01:02:32;20.63;1015.38;12;0;0
2019-08-25 01:03:01;20.64;1015.38;12;0;0
2019-08-25 01:03:31;20.64;1015.35;11;0;0
2019-08-25 01:04:01;20.63;1015.31;11;0;0
2019-08-25 01:04:31;20.66;1015.37;12;0;0
2019-08-25 01:05:01;20.48;1015.36;12;0;0
2019-08-25 01:05:31;20.42;1015.41;12;0;0
2019-08-25 01:06:01;20.52;1015.44;12;0;0
2019-08-25 01:06:31;20.72;1015.39;13;0;0
2019-08-25 01:07:01;20.79;1015.33;11;0;0
2019-08-25 01:07:31;20.64;1015.38;12;0;0
2019-08-25 01:08:01;20.77;1015.4;11;0;0
2019-08-25 01:08:31;20.63;1015.33;12;0;0
2019-08-25 01:09:01;20.53;1015.38;12;0;0
2019-08-25 01:09:31;20.54;1015.44;13;0;0
2019-08-25 01:10:01;20.69;1015.43;13;0;0
2019-08-25 01:10:31;20.51;1015.4;12;0;0
2019-08-25 01:11:01;20.57;1015.4;12;0;0
2019-08-25 01:11:31;20.67;1015.4;12;0;0
2019-08-25 01:12:02;20.69;1015.4;13;0;0
2019-08-25 01:12:32;20.55;1015.42;12;0;0
2019-08-25 01:13:01;20.65;1015.39;12;0;0
2019-08-25 01:13:31;20.62;1015.38;12;0;0
2019-08-25 01:14:01;20.64;1015.37;13;0;0
2019-08-25 01:14:31;20.6;1015.37;12;0;0
2019-08-25 01:15:01;20.53;1015.38;12;0;0
2019-08-25 01:15:31;20.51;1015.38;12;0;0
2019-08-25 01:16:02;20.6;1015.39;12;0;0
2019-08-25 01:16:32;20.66;1015.36;14;0;0
2019-08-25 01:17:01;20.71;1015.34;14;0;0
2019-08-25 01:17:31;20.67;1015.37;13;0;0
2019-08-25 01:18:01;20.62;1015.37;13;0;0
2019-08-25 01:18:31;20.57;1015.4;13;0;0
2019-08-25 01:19:01;20.68;1015.38;14;0;0
2019-08-25 01:19:31;20.65;1015.32;14;0;0
2019-08-25 01:20:01;20.46;1015.35;13;0;0
2019-08-25 01:20:31;20.52;1015.35;14;0;0
2019-08-25 01:21:01;20.48;1015.36;13;0;0
2019-08-25 01:21:31;20.39;1015.35;13;0;0
2019-08-25 01:22:01;20.53;1015.33;13;0;0
2019-08-25 01:22:31;20.49;1015.3;14;0;0
2019-08-25 01:23:01;20.56;1015.35;14;0;0
2019-08-25 01:23:31;20.47;1015.4;12;0;0
2019-08-25 01:24:01;20.57;1015.41;13;0;0
2019-08-25 01:24:31;20.48;1015.35;13;0;0
2019-08-25 01:25:01;20.48;1015.29;14;0;0
2019-08-25 01:25:31;20.52;1015.3;13;0;0
2019-08-25 01:26:01;20.46;1015.34;13;0;0
2019-08-25 01:26:31;20.39;1015.31;13;0;0
2019-08-25 01:27:01;20.36;1015.28;14;0;0
2019-08-25 01:27:31;20.31;1015.31;14;0;0
2019-08-25 01:28:01;20.49;1015.29;13;0;0
2019-08-25 01:28:32;20.47;1015.33;13;0;0
2019-08-25 01:29:01;20.37;1015.32;13;0;0
2019-08-25 01:29:31;20.36;1015.29;13;0;0
2019-08-25 01:30:01;20.5;1015.32;13;0;0
2019-08-25 01:30:31;20.48;1015.31;13;0;0
2019-08-25 01:31:01;20.42;1015.28;13;0;0
2019-08-25 01:31:31;20.4;1015.3;13;0;0
2019-08-25 01:32:01;20.34;1015.3;14;0;0
2019-08-25 01:32:31;20.36;1015.23;13;0;0
2019-08-25 01:33:01;20.33;1015.3;14;0;0
2019-08-25 01:33:31;20.19;1015.31;13;0;0
2019-08-25 01:34:01;20.22;1015.33;13;0;0
2019-08-25 01:34:31;20.33;1015.33;13;0;0
2019-08-25 01:35:01;20.29;1015.24;12;0;0
2019-08-25 01:35:31;20.41;1015.3;13;0;0
2019-08-25 01:36:01;20.23;1015.32;12;0;0
2019-08-25 01:36:31;20.24;1015.34;12;0;0
2019-08-25 01:37:01;20.28;1015.34;12;0;0
2019-08-25 01:37:32;20.38;1015.31;12;0;0
2019-08-25 01:38:01;20.36;1015.34;13;0;0
2019-08-25 01:38:31;20.38;1015.41;12;0;0
2019-08-25 01:39:01;20.28;1015.4;13;0;0
2019-08-25 01:39:31;20.33;1015.38;13;0;0
2019-08-25 01:40:01;20.32;1015.36;13;0;0
2019-08-25 01:40:31;20.31;1015.35;13;0;0
2019-08-25 01:41:01;20.32;1015.33;12;0;0
2019-08-25 01:41:31;20.29;1015.31;13;0;0
2019-08-25 01:42:01;20.25;1015.35;12;0;0
2019-08-25 01:42:32;20.24;1015.32;12;0;0
2019-08-25 01:43:01;20.28;1015.27;13;0;0
2019-08-25 01:43:31;20.27;1015.22;12;0;0
2019-08-25 01:44:01;20.11;1015.25;12;0;0
2019-08-25 01:44:31;20.12;1015.24;12;0;0
2019-08-25 01:45:01;20.26;1015.27;12;0;0
2019-08-25 01:45:31;20.1;1015.28;12;0;0
2019-08-25 01:46:01;20.14;1015.25;12;0;0
2019-08-25 01:46:31;20.06;1015.24;12;0;0
2019-08-25 01:47:01;19.99;1015.26;12;0;0
2019-08-25 01:47:31;19.96;1015.26;13;0;0
2019-08-25 01:48:01;20.17;1015.25;12;0;0
2019-08-25 01:48:31;19.99;1015.29;12;0;0
2019-08-25 01:49:01;20.11;1015.33;12;0;0
2019-08-25 01:49:31;20.1;1015.34;12;0;0
2019-08-25 01:50:02;20.15;1015.36;12;0;0
2019-08-25 01:50:31;20.16;1015.36;12;0;0
2019-08-25 01:51:01;20.05;1015.28;12;0;0
2019-08-25 01:51:31;19.96;1015.23;12;0;0
2019-08-25 01:52:01;19.92;1015.27;12;0;0
2019-08-25 01:52:32;20.02;1015.22;11;0;0
2019-08-25 01:53:01;20.05;1015.19;12;0;0
2019-08-25 01:53:31;20.05;1015.29;12;0;0
2019-08-25 01:54:01;20.13;1015.28;12;0;0
2019-08-25 01:54:31;19.91;1015.26;12;0;0
2019-08-25 01:55:01;20.04;1015.24;11;0;0
2019-08-25 01:55:31;20.01;1015.3;12;0;0
2019-08-25 01:56:01;19.92;1015.34;12;0;0
2019-08-25 01:56:31;19.95;1015.31;12;0;0
2019-08-25 01:57:01;19.93;1015.31;12;0;0
2019-08-25 01:57:31;19.96;1015.29;12;0;0
2019-08-25 01:58:01;19.95;1015.28;11;0;0
2019-08-25 01:58:31;20.03;1015.31;12;0;0
2019-08-25 01:59:01;19.99;1015.4;11;0;0
2019-08-25 01:59:31;19.95;1015.34;12;0;0
2019-08-25 02:00:02;19.99;1015.33;11;0;0
2019-08-25 02:00:31;19.96;1015.33;11;0;0
2019-08-25 02:01:01;19.81;1015.37;12;0;0
2019-08-25 02:01:31;19.83;1015.29;11;0;0
2019-08-25 02:02:01;19.8;1015.28;12;0;0
2019-08-25 02:02:31;19.71;1015.27;11;0;0
2019-08-25 02:03:01;19.79;1015.28;13;0;0
2019-08-25 02:03:31;19.8;1015.34;12;0;0
2019-08-25 02:04:01;19.71;1015.35;12;0;0
2019-08-25 02:04:32;19.7;1015.29;11;0;0
2019-08-25 02:05:01;19.78;1015.25;11;0;0
2019-08-25 02:05:31;19.79;1015.32;11;0;0
2019-08-25 02:06:01;19.69;1015.33;11;0;0
2019-08-25 02:06:31;19.8;1015.29;11;0;0
2019-08-25 02:07:01;19.76;1015.3;12;0;0
2019-08-25 02:07:31;19.73;1015.32;11;0;0
2019-08-25 02:08:01;19.87;1015.35;11;0;0
2019-08-25 02:08:31;19.84;1015.28;12;0;0
2019-08-25 02:09:01;19.81;1015.31;11;0;0
2019-08-25 02:09:31;19.56;1015.35;11;0;0
2019-08-25 02:10:01;19.68;1015.33;11;0;0
2019-08-25 02:10:31;19.65;1015.35;11;0;0
2019-08-25 02:11:01;19.73;1015.37;11;0;0
2019-08-25 02:11:31;19.65;1015.38;11;0;0
2019-08-25 02:12:01;19.7;1015.41;12;0;0
2019-08-25 02:12:31;19.67;1015.36;11;0;0
2019-08-25 02:13:01;19.66;1015.28;11;0;0
2019-08-25 02:13:32;19.62;1015.34;12;0;0
2019-08-25 02:14:01;19.69;1015.3;11;0;0
2019-08-25 02:14:31;19.65;1015.3;12;0;0
2019-08-25 02:15:01;19.69;1015.33;11;0;0
2019-08-25 02:15:31;19.77;1015.26;11;0;0
2019-08-25 02:16:01;19.65;1015.34;11;0;0
2019-08-25 02:16:31;19.6;1015.39;12;0;0
2019-08-25 02:17:01;19.61;1015.32;12;0;0
2019-08-25 02:17:31;19.68;1015.35;12;0;0
2019-08-25 02:18:01;19.72;1015.35;11;0;0
2019-08-25 02:18:31;19.66;1015.4;12;0;0
2019-08-25 02:19:01;19.56;1015.39;11;0;0
2019-08-25 02:19:31;19.61;1015.33;12;0;0
2019-08-25 02:20:01;19.5;1015.34;12;0;0
2019-08-25 02:20:31;19.6;1015.3;12;0;0
2019-08-25 02:21:01;19.46;1015.33;11;0;0
2019-08-25 02:21:31;19.42;1015.32;11;0;0
2019-08-25 02:22:01;19.47;1015.37;12;0;0
2019-08-25 02:22:31;19.46;1015.38;12;0;0
2019-08-25 02:23:01;19.47;1015.35;11;0;0
2019-08-25 02:23:31;19.56;1015.33;11;0;0
2019-08-25 02:24:01;19.66;1015.29;11;0;0
2019-08-25 02:24:31;19.58;1015.3;11;0;0
2019-08-25 02:25:01;19.66;1015.35;11;0;0
2019-08-25 02:25:32;19.56;1015.36;12;0;0
2019-08-25 02:26:02;19.65;1015.41;12;0;0
2019-08-25 02:26:31;19.49;1015.44;11;0;0
2019-08-25 02:27:01;19.54;1015.38;11;0;0
2019-08-25 02:27:31;19.58;1015.37;11;0;0
2019-08-25 02:28:01;19.54;1015.37;11;0;0
2019-08-25 02:28:31;19.65;1015.4;12;0;0
2019-08-25 02:29:01;19.58;1015.4;11;0;0
2019-08-25 02:29:31;19.45;1015.42;11;0;0
2019-08-25 02:30:01;19.53;1015.45;10;0;0
2019-08-25 02:30:31;19.5;1015.41;10;0;0
2019-08-25 02:31:01;19.43;1015.42;11;0;0
2019-08-25 02:31:31;19.63;1015.44;11;0;0
2019-08-25 02:32:01;19.58;1015.5;11;0;0
2019-08-25 02:32:31;19.59;1015.45;12;0;0
2019-08-25 02:33:01;19.6;1015.43;12;0;0
2019-08-25 02:33:31;19.37;1015.5;12;0;0
2019-08-25 02:34:01;19.35;1015.51;12;0;0
2019-08-25 02:34:31;19.46;1015.47;11;0;0
2019-08-25 02:35:02;19.49;1015.48;11;0;0
2019-08-25 02:35:31;19.51;1015.52;11;0;0
2019-08-25 02:36:01;19.52;1015.5;11;0;0
2019-08-25 02:36:32;19.45;1015.51;11;0;0
2019-08-25 02:37:01;19.51;1015.44;11;0;0
2019-08-25 02:37:31;19.42;1015.47;11;0;0
2019-08-25 02:38:01;19.47;1015.44;11;0;0
2019-08-25 02:38:31;19.51;1015.47;11;0;0
2019-08-25 02:39:01;19.4;1015.44;11;0;0
2019-08-25 02:39:31;19.39;1015.41;11;0;0
2019-08-25 02:40:01;19.38;1015.4;11;0;0
2019-08-25 02:40:31;19.44;1015.45;11;0;0
2019-08-25 02:41:01;19.45;1015.49;11;0;0
2019-08-25 02:41:31;19.5;1015.42;11;0;0
2019-08-25 02:42:02;19.52;1015.45;11;0;0
2019-08-25 02:42:31;19.51;1015.41;10;0;0
2019-08-25 02:43:01;19.46;1015.42;10;0;0
2019-08-25 02:43:31;19.37;1015.46;11;0;0
2019-08-25 02:44:01;19.35;1015.43;11;0;0
2019-08-25 02:44:31;19.27;1015.39;12;0;0
2019-08-25 02:45:01;19.36;1015.39;11;0;0
2019-08-25 02:45:31;19.38;1015.41;11;0;0
2019-08-25 02:46:01;19.46;1015.39;10;0;0
2019-08-25 02:46:31;19.46;1015.44;11;0;0
2019-08-25 02:47:01;19.48;1015.46;11;0;0
2019-08-25 02:47:32;19.41;1015.41;11;0;0
2019-08-25 02:48:01;19.45;1015.41;12;0;0
2019-08-25 02:48:31;19.48;1015.44;12;0;0
2019-08-25 02:49:01;19.47;1015.46;11;0;0
2019-08-25 02:49:31;19.33;1015.47;11;0;0
2019-08-25 02:50:01;19.33;1015.49;11;0;0
2019-08-25 02:50:31;19.36;1015.52;10;0;0
2019-08-25 02:51:01;19.36;1015.51;10;0;0
2019-08-25 02:51:31;19.27;1015.49;11;0;0
2019-08-25 02:52:01;19.25;1015.5;10;0;0
2019-08-25 02:52:31;19.21;1015.51;11;0;0
2019-08-25 02:53:01;19.32;1015.54;11;0;0
2019-08-25 02:53:31;19.27;1015.5;11;0;0
2019-08-25 02:54:01;19.32;1015.53;11;0;0
2019-08-25 02:54:31;19.29;1015.54;11;0;0
2019-08-25 02:55:01;19.3;1015.54;11;0;0
2019-08-25 02:55:31;19.31;1015.5;11;0;0
2019-08-25 02:56:01;19.25;1015.5;10;0;0
2019-08-25 02:56:31;19.2;1015.55;11;0;0
2019-08-25 02:57:02;19.3;1015.56;10;0;0
2019-08-25 02:57:31;19.28;1015.51;11;0;0
2019-08-25 02:58:01;19.23;1015.51;12;0;0
2019-08-25 02:58:32;19.32;1015.48;12;0;0
2019-08-25 02:59:01;19.24;1015.53;11;0;0
2019-08-25 02:59:31;19.13;1015.52;11;0;0
2019-08-25 03:00:01;19.21;1015.52;11;0;0
2019-08-25 03:00:31;19.27;1015.49;11;0;0
2019-08-25 03:01:01;19.21;1015.53;11;0;0
2019-08-25 03:01:31;19.29;1015.52;11;0;0
2019-08-25 03:02:01;19.2;1015.53;11;0;0
2019-08-25 03:02:32;19.27;1015.56;10;0;0
2019-08-25 03:03:01;19.22;1015.54;10;0;0
2019-08-25 03:03:31;19.23;1015.46;11;0;0
2019-08-25 03:04:01;19.31;1015.48;11;0;0
2019-08-25 03:04:31;19.23;1015.49;11;0;0
2019-08-25 03:05:01;19.25;1015.51;12;0;0
2019-08-25 03:05:31;19.25;1015.5;11;0;0
2019-08-25 03:06:01;19.29;1015.48;11;0;0
2019-08-25 03:06:31;19.11;1015.45;10;0;0
2019-08-25 03:07:01;19.11;1015.47;10;0;0
2019-08-25 03:07:31;19.16;1015.52;11;0;0
2019-08-25 03:08:01;19.11;1015.49;11;0;0
2019-08-25 03:08:31;19.23;1015.52;11;0;0
2019-08-25 03:09:01;19.12;1015.49;10;0;0
2019-08-25 03:09:31;19.1;1015.49;10;0;0
2019-08-25 03:10:01;19.18;1015.47;10;0;0
2019-08-25 03:10:31;19.13;1015.42;11;0;0
2019-08-25 03:11:01;19.13;1015.47;10;0;0
2019-08-25 03:11:32;18.99;1015.48;9;0;0
2019-08-25 03:12:01;19.14;1015.5;10;0;0
2019-08-25 03:12:31;19.17;1015.53;10;0;0
2019-08-25 03:13:01;19.25;1015.52;11;0;0
2019-08-25 03:13:31;19.26;1015.5;11;0;0
2019-08-25 03:14:01;19.21;1015.48;10;0;0
2019-08-25 03:14:31;19.11;1015.44;11;0;0
2019-08-25 03:15:01;19.2;1015.5;10;0;0
2019-08-25 03:15:31;19.12;1015.51;10;0;0
2019-08-25 03:16:01;19.13;1015.52;11;0;0
2019-08-25 03:16:31;19.21;1015.51;10;0;0
2019-08-25 03:17:01;19.13;1015.54;11;0;0
2019-08-25 03:17:31;19;1015.53;11;0;0
2019-08-25 03:18:01;19.09;1015.47;12;0;0
2019-08-25 03:18:31;19.09;1015.46;11;0;0
2019-08-25 03:19:01;19.07;1015.51;10;0;0
2019-08-25 03:19:31;19.06;1015.54;10;0;0
2019-08-25 03:20:01;18.92;1015.5;10;0;0
2019-08-25 03:20:31;19.14;1015.51;10;0;0
2019-08-25 03:21:01;19.06;1015.53;11;0;0
2019-08-25 03:21:31;19.04;1015.56;11;0;0
2019-08-25 03:22:01;18.97;1015.57;10;0;0
2019-08-25 03:22:32;19.16;1015.52;10;0;0
2019-08-25 03:23:01;19.24;1015.51;11;0;0
2019-08-25 03:23:31;19.16;1015.49;11;0;0
2019-08-25 03:24:01;19.11;1015.48;11;0;0
2019-08-25 03:24:31;19.13;1015.51;11;0;0
2019-08-25 03:25:01;19.09;1015.55;10;0;0
2019-08-25 03:25:31;19.17;1015.52;10;0;0
2019-08-25 03:26:01;19.08;1015.53;11;0;0
2019-08-25 03:26:31;19.04;1015.55;10;0;0
2019-08-25 03:27:01;18.98;1015.59;11;0;0
2019-08-25 03:27:31;18.96;1015.58;11;0;0
2019-08-25 03:28:01;18.88;1015.59;11;0;0
2019-08-25 03:28:31;18.84;1015.57;10;0;0
2019-08-25 03:29:01;18.9;1015.56;10;0;0
2019-08-25 03:29:31;18.96;1015.57;11;0;0
2019-08-25 03:30:01;18.88;1015.59;10;0;0
2019-08-25 03:30:31;18.85;1015.6;11;0;0
2019-08-25 03:31:01;18.94;1015.6;11;0;0
2019-08-25 03:31:31;18.84;1015.61;10;0;0
2019-08-25 03:32:01;18.85;1015.6;11;0;0
2019-08-25 03:32:31;18.92;1015.6;10;0;0
2019-08-25 03:33:01;18.98;1015.57;10;0;0
2019-08-25 03:33:31;18.82;1015.56;10;0;0
2019-08-25 03:34:01;18.96;1015.56;10;0;0
2019-08-25 03:34:32;18.88;1015.56;10;0;0
2019-08-25 03:35:01;18.98;1015.57;11;0;0
2019-08-25 03:35:31;18.99;1015.52;10;0;0
2019-08-25 03:36:01;19.03;1015.55;11;0;0
2019-08-25 03:36:31;18.88;1015.56;11;0;0
2019-08-25 03:37:01;18.94;1015.57;10;0;0
2019-08-25 03:37:31;19.02;1015.6;10;0;0
2019-08-25 03:38:01;19.04;1015.6;10;0;0
2019-08-25 03:38:31;18.93;1015.59;10;0;0
2019-08-25 03:39:01;18.8;1015.56;10;0;0
2019-08-25 03:39:31;18.98;1015.54;10;0;0
2019-08-25 03:40:01;18.93;1015.56;10;0;0
2019-08-25 03:40:31;18.75;1015.58;10;0;0
2019-08-25 03:41:01;18.75;1015.6;10;0;0
2019-08-25 03:41:31;18.88;1015.58;10;0;0
2019-08-25 03:42:01;18.88;1015.59;10;0;0
2019-08-25 03:42:31;18.87;1015.59;10;0;0
2019-08-25 03:43:02;18.97;1015.57;10;0;0
2019-08-25 03:43:31;18.95;1015.56;11;0;0
2019-08-25 03:44:01;18.85;1015.53;10;0;0
2019-08-25 03:44:32;18.87;1015.58;10;0;0
2019-08-25 03:45:01;18.96;1015.57;10;0;0
2019-08-25 03:45:31;18.99;1015.56;11;0;0
2019-08-25 03:46:01;18.93;1015.54;10;0;0
2019-08-25 03:46:31;18.97;1015.56;10;0;0
2019-08-25 03:47:01;18.87;1015.59;10;0;0
2019-08-25 03:47:31;18.91;1015.6;10;0;0
2019-08-25 03:48:01;18.72;1015.63;10;0;0
2019-08-25 03:48:31;18.85;1015.59;10;0;0
2019-08-25 03:49:01;19.02;1015.57;10;0;0
2019-08-25 03:49:31;18.95;1015.55;10;0;0
2019-08-25 03:50:01;18.94;1015.56;10;0;0
2019-08-25 03:50:31;18.91;1015.57;10;0;0
2019-08-25 03:51:01;18.86;1015.54;10;0;0
2019-08-25 03:51:31;18.76;1015.52;10;0;0
2019-08-25 03:52:01;18.65;1015.49;10;0;0
2019-08-25 03:52:31;18.89;1015.5;10;0;0
2019-08-25 03:53:01;18.84;1015.53;10;0;0
2019-08-25 03:53:31;18.69;1015.56;10;0;0
2019-08-25 03:54:01;18.79;1015.56;10;0;0
2019-08-25 03:54:31;18.91;1015.58;10;0;0
2019-08-25 03:55:01;18.8;1015.58;10;0;0
2019-08-25 03:55:31;18.7;1015.57;10;0;0
2019-08-25 03:56:01;18.56;1015.57;10;0;0
2019-08-25 03:56:32;18.46;1015.58;10;0;0
2019-08-25 03:57:01;18.73;1015.6;10;0;0
2019-08-25 03:57:31;18.78;1015.6;10;0;0
2019-08-25 03:58:01;18.72;1015.62;10;0;0
2019-08-25 03:58:31;18.75;1015.62;10;0;0
2019-08-25 03:59:01;18.61;1015.6;11;0;0
2019-08-25 03:59:31;18.63;1015.6;10;0;0
2019-08-25 04:00:01;18.81;1015.6;10;0;0
2019-08-25 04:00:31;18.66;1015.61;10;0;0
2019-08-25 04:01:02;18.64;1015.61;10;0;0
2019-08-25 04:01:31;18.66;1015.62;9;0;0
2019-08-25 04:02:01;18.71;1015.61;11;0;0
2019-08-25 04:02:31;18.56;1015.59;10;0;0
2019-08-25 04:03:01;18.59;1015.58;10;0;0
2019-08-25 04:03:31;18.68;1015.56;10;0;0
2019-08-25 04:04:01;18.51;1015.57;9;0;0
2019-08-25 04:04:31;18.51;1015.59;9;0;0
2019-08-25 04:05:02;18.48;1015.53;9;0;0
2019-08-25 04:05:31;18.45;1015.54;9;0;0
2019-08-25 04:06:01;18.57;1015.51;9;0;0
2019-08-25 04:06:31;18.66;1015.52;10;0;0
2019-08-25 04:07:01;18.56;1015.53;10;0;0
2019-08-25 04:07:32;18.44;1015.54;10;0;0
2019-08-25 04:08:01;18.53;1015.52;10;0;0
2019-08-25 04:08:31;18.41;1015.52;10;0;0
2019-08-25 04:09:01;18.45;1015.53;10;0;0
2019-08-25 04:09:31;18.52;1015.54;10;0;0
2019-08-25 04:10:01;18.49;1015.5;10;0;0
2019-08-25 04:10:31;18.53;1015.46;10;0;0
2019-08-25 04:11:01;18.46;1015.48;9;0;0
2019-08-25 04:11:31;18.72;1015.53;10;0;0
2019-08-25 04:12:01;18.7;1015.51;10;0;0
2019-08-25 04:12:31;18.68;1015.54;9;0;0
2019-08-25 04:13:01;18.67;1015.52;10;0;0
2019-08-25 04:13:31;18.59;1015.49;10;0;0
2019-08-25 04:14:01;18.45;1015.43;10;0;0
2019-08-25 04:14:31;18.39;1015.47;10;0;0
2019-08-25 04:15:02;18.49;1015.48;10;0;0
2019-08-25 04:15:31;18.61;1015.49;10;0;0
2019-08-25 04:16:01;18.69;1015.49;10;0;0
2019-08-25 04:16:31;18.54;1015.47;9;0;0
2019-08-25 04:17:01;18.49;1015.48;10;0;0
2019-08-25 04:17:31;18.51;1015.47;10;0;0
2019-08-25 04:18:01;18.49;1015.5;10;0;0
2019-08-25 04:18:32;18.39;1015.49;10;0;0
2019-08-25 04:19:01;18.41;1015.46;10;0;0
2019-08-25 04:19:31;18.46;1015.48;10;0;0
2019-08-25 04:20:01;18.46;1015.45;10;0;0
2019-08-25 04:20:31;18.36;1015.47;10;0;0
2019-08-25 04:21:01;18.34;1015.48;10;0;0
2019-08-25 04:21:31;18.31;1015.54;10;0;0
2019-08-25 04:22:01;18.35;1015.55;10;0;0
2019-08-25 04:22:31;18.37;1015.55;10;0;0
2019-08-25 04:23:01;18.33;1015.58;10;0;0
2019-08-25 04:23:31;18.25;1015.57;9;0;0
2019-08-25 04:24:01;18.43;1015.55;10;0;0
2019-08-25 04:24:31;18.23;1015.55;9;0;0
2019-08-25 04:25:01;18.26;1015.51;10;0;0
2019-08-25 04:25:31;18.3;1015.54;10;0;0
2019-08-25 04:26:01;18.4;1015.58;10;0;0
2019-08-25 04:26:31;18.23;1015.58;10;0;0
2019-08-25 04:27:01;18.2;1015.58;10;0;0
2019-08-25 04:27:31;18.24;1015.56;10;0;0
2019-08-25 04:28:01;18.26;1015.55;10;0;0
2019-08-25 04:28:31;18.32;1015.57;10;0;0
2019-08-25 04:29:01;18.23;1015.56;9;0;0
2019-08-25 04:29:32;18.33;1015.55;10;0;0
2019-08-25 04:30:01;18.33;1015.55;10;0;0
2019-08-25 04:30:31;18.27;1015.59;10;0;0
2019-08-25 04:31:01;18.01;1015.61;10;0;0
2019-08-25 04:31:31;18.16;1015.6;9;0;0
2019-08-25 04:32:01;18.17;1015.61;10;0;0
2019-08-25 04:32:31;18.29;1015.63;9;0;0
2019-08-25 04:33:01;18.28;1015.6;10;0;0
2019-08-25 04:33:31;18.34;1015.63;10;0;0
2019-08-25 04:34:01;18.28;1015.65;10;0;0
2019-08-25 04:34:31;18.29;1015.65;10;0;0
2019-08-25 04:35:01;18.23;1015.65;10;0;0
2019-08-25 04:35:31;18.25;1015.66;9;0;0
2019-08-25 04:36:01;18.27;1015.67;10;0;0
2019-08-25 04:36:31;18.22;1015.66;10;0;0
2019-08-25 04:37:01;18.16;1015.66;9;0;0
2019-08-25 04:37:31;18.23;1015.64;10;0;0
2019-08-25 04:38:02;18.21;1015.66;10;0;0
2019-08-25 04:38:31;18.2;1015.66;9;0;0
2019-08-25 04:39:01;18.2;1015.67;9;0;0
2019-08-25 04:39:32;18.2;1015.67;10;0;0
2019-08-25 04:40:01;18.11;1015.67;10;0;0
2019-08-25 04:40:31;18.09;1015.67;9;0;0
2019-08-25 04:41:01;18.22;1015.67;10;0;0
2019-08-25 04:41:31;18.29;1015.67;10;0;0
2019-08-25 04:42:01;18.12;1015.67;9;0;0
2019-08-25 04:42:31;18.05;1015.67;10;0;0
2019-08-25 04:43:01;18.01;1015.67;10;0;0
2019-08-25 04:43:31;18.06;1015.67;10;0;0
2019-08-25 04:44:02;18.14;1015.67;10;0;0
2019-08-25 04:44:31;18.19;1015.67;10;0;0
2019-08-25 04:45:01;18.18;1015.67;11;0;0
2019-08-25 04:45:31;18.22;1015.67;10;0;0
2019-08-25 04:46:01;18.15;1015.67;9;0;0
2019-08-25 04:46:31;18.12;1015.67;9;0;0
2019-08-25 04:47:01;18.21;1015.67;9;0;0
2019-08-25 04:47:31;18.24;1015.67;9;0;0
2019-08-25 04:48:01;18.19;1015.67;9;0;0
2019-08-25 04:48:31;18.04;1015.67;9;0;0
2019-08-25 04:49:01;18.14;1015.67;10;0;0
2019-08-25 04:49:31;18.21;1015.67;10;0;0
2019-08-25 04:50:01;18.17;1015.66;10;0;0
2019-08-25 04:50:32;18.12;1015.65;9;0;0
2019-08-25 04:51:02;18.1;1015.66;9;0;0
2019-08-25 04:51:31;18.04;1015.67;9;0;0
2019-08-25 04:52:01;18.09;1015.67;9;0;0
2019-08-25 04:52:31;18.03;1015.67;9;0;0
2019-08-25 04:53:01;18.06;1015.67;9;0;0